Regional Weather Roundup
Issued by NWS

Home | Current Version | Previous Version | Graphics & Text | Print | Product List | Glossary On
Versions: 1 2 3 4 5 6 7 8 9 10 11 12 13 14 15 16 17 18 19 20 21 22 23 24 25 26 27 28 29 30 31 32 33 34 35 36 37 38 39 40 41 42 43 44 45 46 47 48 49 50
000
ASUS43 KDMX 021607
RWRIA

WEATHER ROUNDUP FOR IOWA
NATIONAL WEATHER SERVICE DES MOINES IA
1100 AM CDT WED SEP 02 2015

NOTE: "FAIR" INDICATES FEW OR NO CLOUDS BELOW 12,000 FEET WITH NO
SIGNIFICANT WEATHER AND/OR OBSTRUCTIONS TO VISIBILITY.

* - THESE STATIONS ARE NOT NWS STATIONS...THUS NOT UNDER NWS
QUALITY CONTROL.  THEY ALSO DO NOT REPORT WEATHER SUCH
AS PRECIPITATION OR FOG.

IAZ001>003-012>014-020>022-031>034-043>046-021700-
   NORTHWEST IOWA

CITY           SKY/WX    TMP DP  RH WIND       PRES   REMARKS
CARROLL *      SUNNY     79  70  73 S21G30    29.94S HX  81
CHEROKEE *     SUNNY     79  72  78 S14G20    29.90F HX  82
DENISON *      SUNNY     79  70  73 S17G25    29.91S HX  81
LE MARS *      SUNNY     79  72  78 S14G21    29.89S HX  82
ORANGE CITY *  SUNNY     79  72  78 S13       29.89S HX  82
SHELDON *      SUNNY     79  70  73 S14G21    29.88S HX  81
SIOUX CITY     SUNNY     80  69  69 S13       29.88F HX  83
SPENCER        MOSUNNY   80  69  69 S17G23    29.91S HX  83
STORM LAKE *   SUNNY     79  72  78 S20       29.93S HX  82
$$

IAZ055>058-069>071-079>083-090>094-021700-
   SOUTHWEST IOWA

CITY           SKY/WX    TMP DP  RH WIND       PRES   REMARKS
ATLANTIC *     SUNNY     79  70  73 S18G29    29.97R HX  81
AUDUBON *      SUNNY     79  70  73 S20G29    29.97S HX  81
CLARINDA *     SUNNY     77  70  78 S13G21    30.01S
COUNCIL BLFS * SUNNY     81  70  69 S17       29.94S HX  84
CRESTON *      SUNNY     77  70  78 S24       30.01S
LAMONI         LGT RAIN  71  69  93 S18G26    30.03F
RED OAK *      CLOUDY    75  70  83 S14G23    29.97S
SHENANDOAH *   PTSUNNY   77  70  78 S17G25    29.97S
$$

IAZ047>049-059>061-072>074-084-021700-
   CENTRAL IOWA

CITY           SKY/WX    TMP DP  RH WIND       PRES   REMARKS
AMES           MOSUNNY   79  70  74 S18G26    29.96F HX  82
ANKENY *       SUNNY     79  72  78 S17G29    29.97S HX  82
CHARITON *     MOSUNNY   73  70  88 S18       30.01F
DES MOINES     MOSUNNY   80  68  66 S17G30    29.96F HX  83
GRINNELL*      PTSUNNY   75  70  83 S14       29.99F
KNOXVILLE *    MOSUNNY   73  70  88 SW13G21   29.98F
MARSHALLTOWN   MOSUNNY   78  70  76 SW14      29.96F HX  80
PELLA *        MOSUNNY   73  73 100 SW14      30.00F
PERRY *          N/A     81  70  69 S21G28    29.96S HX  84
$$

IAZ004>006-015-016-023>025-035-036-021700-
   NORTH CENTRAL IOWA

CITY           SKY/WX    TMP DP  RH WIND       PRES   REMARKS
ALGONA *       SUNNY     79  70  73 S25       29.92F HX  81
CLARION *      SUNNY     79  68  69 S20G26    29.94S HX  81
ESTHERVILLE    SUNNY     77  69  76 S16G23    29.90F
FORT DODGE *   SUNNY     79  68  69 S23G29    29.95S HX  81
MASON CITY     SUNNY     80  69  69 SW17G25   29.94F HX  83
FOREST CITY *  SUNNY     79  66  65 S16G23    29.93S HX  81
IOWA FALLS *     N/A     81  70  69 S20       29.97S HX  84
$$

IAZ007>011-017>019-026>030-037>042-050>054-066-021700-
   NORTHEAST IOWA

CITY           SKY/WX    TMP DP  RH WIND       PRES   REMARKS
CEDAR RAPIDS   CLOUDY    74  71  91 SE7       30.01F
CHARLES CITY * MOSUNNY   77  72  83 S14G21    29.97S
CLINTON *      PTSUNNY   82  70  65 S12       30.05S HX  86
DECORAH *      SUNNY     77  70  78 VRB6      29.98F
DUBUQUE        CLOUDY    78  70  76 SW15      30.03S HX  80
MONTICELLO *   SUNNY     77  70  78 S6G13     30.01F
OELWEIN *      SUNNY     75  70  83 S13       30.00S
WATERLOO       MOSUNNY   77  69  76 S15       29.97S
$$

IAZ064-065-067-068-078-021700-
   EAST CENTRAL IOWA

CITY           SKY/WX    TMP DP  RH WIND       PRES   REMARKS
DAVENPORT      CLOUDY    80  69  69 S7        30.03F HX  83
IOWA CITY      CLOUDY    76  69  79 CALM      30.04R
MT. PLEASANT * CLOUDY    77  70  78 SW5       30.03S
MUSCATINE *    SUNNY     81  70  69 S10       30.01S HX  84
QUAD CITIES    PTSUNNY   83  70  64 S8        30.02F HX  87
$$

IAZ062-063-075>077-085>089-095>099-021700-
   SOUTHEAST IOWA

CITY           SKY/WX    TMP DP  RH WIND       PRES   REMARKS
BURLINGTON     CLOUDY    79  72  79 S12       30.03F HX  82
FAIRFIELD *    SUNNY     75  68  78 S6        30.03S
FORT MADISON * SUNNY     75  72  88 S9        30.04F
KEOKUK *       SUNNY     79  72  78 S12       30.05S HX  82
OSKALOOSA *      N/A     73  70  88 SW14G20   30.01F
CENTERVILLE *    N/A     72  68  88 SW15      30.04S
OTTUMWA        CLOUDY    74  70  87 SW13      30.00S
WASHINGTON *     N/A    N/A N/A N/A MISG        N/A
$$

ABBREVIATIONS USED IN REMARKS
   TC - TEMPERATURES IN CELSIUS
  WCI - WIND CHILL INDEX
   HX - HEAT INDEX
  VSB - VISIBILITY
$$




USA.gov is the U.S. government's official web portal to all federal, state and local government web resources and services.